| time (UTC) | temp F | wind direction | speed MPH | gust MPH | rain 1hr in | rain 24hr in | rain mn in | humidity % | barometer mb |
| 20260504173333 | 57 | 275 | 9.0 | 0.0 | 0.00 | 0.00 | 0.00 | 31 | 1011.3 |
| 20260504170328 | 59 | 247 | 7.0 | 0.0 | 0.00 | 0.00 | 0.00 | 32 | 1011.2 |
| 20260504160335 | 55 | 250 | 2.0 | 0.0 | 0.00 | 0.00 | 0.00 | 36 | 1012.2 |
| 20260504150335 | 49 | 19 | 1.0 | 0.0 | 0.00 | 0.00 | 0.00 | 47 | 1012.7 |
| 20260504140322 | 42 | 355 | 4.0 | 0.0 | 0.00 | 0.00 | 0.00 | 59 | 1012.8 |
| 20260504130326 | 32 | 355 | 2.0 | 0.0 | 0.00 | 0.00 | 0.00 | 73 | 1012.3 |
| 20260504110321 | 28 | 355 | 4.0 | 0.0 | 0.00 | 0.00 | 0.00 | 76 | 1012.2 |
| 20260504100329 | 30 | 13 | 5.0 | 0.0 | 0.00 | 0.00 | 0.00 | 74 | 1012.5 |
| 20260504080320 | 32 | 344 | 5.0 | 0.0 | 0.00 | 0.00 | 0.00 | 71 | 1013.0 |
| 20260504070348 | 31 | 17 | 6.0 | 0.0 | 0.00 | 0.00 | 0.00 | 73 | 1013.4 |
| 20260504050337 | 34 | 32 | 0.0 | 0.0 | 0.00 | 0.00 | 0.00 | 60 | 1014.6 |
| 20260504043352 | 36 | 31 | 0.0 | 0.0 | 0.00 | 0.00 | 0.00 | 59 | 1014.2 |
| 20260504040324 | 37 | 28 | 0.0 | 0.0 | 0.00 | 0.00 | 0.00 | 55 | 1014.5 |
| 20260504033338 | 39 | 27 | 0.0 | 0.0 | 0.00 | 0.00 | 0.00 | 54 | 1013.8 |
| 20260504030331 | 42 | 13 | 0.0 | 0.0 | 0.00 | 0.00 | 0.00 | 46 | 1014.1 |
| 20260504023325 | 48 | 329 | 0.0 | 0.0 | 0.00 | 0.00 | 0.00 | 39 | 1013.6 |
| 20260504020359 | 55 | 307 | 2.0 | 0.0 | 0.00 | 0.00 | 0.00 | 33 | 1013.6 |
| 20260504013332 | 58 | 292 | 7.0 | 0.0 | 0.00 | 0.00 | 0.00 | 28 | 1013.3 |
| 20260504010326 | 58 | 283 | 5.0 | 0.0 | 0.00 | 0.00 | 0.00 | 29 | 1013.9 |
| 20260504003320 | 58 | 309 | 5.0 | 0.0 | 0.00 | 0.00 | 0.00 | 27 | 1014.1 |
| 20260504000334 | 61 | 281 | 6.0 | 0.0 | 0.00 | 0.00 | 0.00 | 22 | 1014.1 |
| 20260503233327 | 59 | 264 | 6.0 | 0.0 | 0.00 | 0.00 | 0.00 | 25 | 1014.1 |
| 20260503230322 | 61 | 294 | 7.0 | 0.0 | 0.00 | 0.00 | 0.00 | 23 | 1014.5 |
| 20260503223333 | 62 | 280 | 11.0 | 0.0 | 0.00 | 0.00 | 0.00 | 21 | 1014.2 |
| 20260503220328 | 62 | 322 | 7.0 | 0.0 | 0.00 | 0.00 | 0.00 | 22 | 1014.4 |
| 20260503213318 | 62 | 182 | 8.0 | 0.0 | 0.00 | 0.00 | 0.00 | 22 | 1015.0 |
| 20260503210331 | 61 | 331 | 9.0 | 0.0 | 0.00 | 0.00 | 0.00 | 22 | 1015.5 |
| 20260503203326 | 61 | 322 | 8.0 | 0.0 | 0.00 | 0.00 | 0.00 | 21 | 1015.7 |
| 20260503200319 | 61 | 270 | 10.0 | 0.0 | 0.00 | 0.00 | 0.00 | 20 | 1016.1 |
| 20260503193332 | 60 | 256 | 7.0 | 0.0 | 0.00 | 0.00 | 0.00 | 24 | 1016.3 |
| 20260503190326 | 60 | 266 | 10.0 | 0.0 | 0.00 | 0.00 | 0.00 | 21 | 1017.0 |
| 20260503183320 | 59 | 250 | 9.0 | 0.0 | 0.00 | 0.00 | 0.00 | 22 | 1017.1 |
| 20260503180333 | 58 | 257 | 7.0 | 0.0 | 0.00 | 0.00 | 0.00 | 24 | 1017.5 |